Regional Weather Roundup
Issued by NWS

Home | Current Version | Previous Version | Graphics & Text | Print | Product List | Glossary On
Versions: 1 2 3 4 5 6 7 8 9 10 11 12 13 14 15 16 17 18 19 20 21 22 23 24 25 26 27 28 29 30 31 32 33 34 35 36 37 38 39 40 41 42 43 44 45 46 47 48 49 50
000
ASUS43 KMPX 231710
RWRMN
WEATHER ROUNDUP FOR MINNESOTA
NATIONAL WEATHER SERVICE TWIN CITIES/CHANHASSEN MN
1200 PM CDT TUE AUG 23 2016


NOTE: "FAIR" INDICATES FEW OR NO CLOUDS BELOW 12,000 FEET WITH NO
SIGNIFICANT WEATHER AND/OR OBSTRUCTIONS TO VISIBILITY. N/A MEANS
CURRENT SKY AND/OR WEATHER CONDITIONS ARE NOT AVAILABLE.

MNZ060>063-068>070-231800-
   Twin Cities Metro

CITY           SKY/WX    TMP DP  RH WIND       PRES   REMARKS
TWIN CITIES    MOSUNNY   79  64  60 S14G23    29.92F
ST PAUL        PTSUNNY   79  66  64 S16G24    29.93F
CRYSTAL        MOSUNNY   79  63  57 S14       29.90F
BLAINE         MOSUNNY   81  64  57 S17G24    29.91
LAKEVILLE      MOSUNNY   75  66  73 S8        29.94F
EDEN PRAIRIE   MOSUNNY   80  66  62 S15       29.91F
LAKEVILLE      MOSUNNY   75  66  73 S8        29.94F
SOUTH ST PAUL  PTSUNNY   79  64  60 S12G18    29.94F
LAKE ELMO      FAIR      77  66  69 S14G20    29.96F
$$
MNZ001>005-007-008-013>017-022>024-027-028-231800-
   Northwest Minnesota

CITY           SKY/WX    TMP DP  RH WIND       PRES   REMARKS
BEMIDJI        SUNNY     78  64  63 S18       29.77F
HALLOCK        SUNNY     79  66  65 S18G26    29.60F
ROSEAU         MOSUNNY   81  68  65 SE17G23   29.69F
WARROAD        CLOUDY    79  70  73 SE16      29.72F
THIEF RVR FALL MOSUNNY   78  63  59 S16       29.69F
CROOKSTON      MOSUNNY   81  64  57 SW10G25   29.66F
FOSSTON        MOSUNNY   79  63  57 S23G35    29.71S
DETROIT LAKES  SUNNY     79  64  61 S15       29.79S
MOORHEAD       SUNNY     81  64  57 S14       29.73R
PARK RAPIDS    SUNNY     80  63  55 S12       29.81S
MAHNOMEN       FAIR      78  65  64 S14G21    29.74R
$$
MNZ006-009>011-018-025>026-231800-
   North Central Minnesota

CITY           SKY/WX    TMP DP  RH WIND       PRES   REMARKS
BAUDETTE       CLOUDY    76  65  68 SE9       29.75S
FLAG ISLAND    CLOUDY    73  66  78 SE7       29.72R
INTL FALLS     PTSUNNY   75  64  68 SE7       29.81F
WASKISH        CLOUDY    77  66  69 SE9G16    29.75R
BIG FORK       CLOUDY    75  64  69 S6        29.83S
LONGVILLE      SUNNY     77  64  65 S13G20    29.83S
GRAND RAPIDS   MOSUNNY   78  65  63 S16G23    29.86S
CRANE LAKE     MOSUNNY   73  63  68 S5        29.86F
ORR            CLOUDY    75  61  60 S9        29.83R
COOK           CLOUDY    75  63  64 S8        29.87S
WALKER         FAIR      78  65  63 S13       29.81R
$$
MNZ012-019>021-037-231800-
   Northeast Minnesota

CITY           SKY/WX    TMP DP  RH WIND       PRES   REMARKS
DULUTH         MOSUNNY   79  64  60 S14       29.91S
ELY            MOSUNNY   77  63  61 S10       29.88F
HIBBING        MOSUNNY   76  63  64 S9        29.86F
EVELETH        MOSUNNY   78  64  62 S9        29.89S
DULUTH HARBOR  MOSUNNY   81  66  61 S14       29.89S
TWO HARBORS    SUNNY     79  66  65 SW12G18   29.89S
SILVER BAY     SUNNY     77  64  65 SW10G17   29.89F
GRAND MARAIS     N/A     70  61  73 SW3       29.92S
G MARAIS ARPRT CLOUDY    70  59  68 S8        29.96S
$$
MNZ029>031-032-039>041-046>048-054>057-064-231800-
   West Central Minnesota

CITY           SKY/WX    TMP DP  RH WIND       PRES   REMARKS
FERGUS FALLS     N/A     79  66  65 S17       29.77F
WHEATON        SUNNY     81  70  69 SE12G21   29.76S
MORRIS         SUNNY     82  66  57 S17       29.79S
ALEXANDRIA     SUNNY     79  65  62 S15G24    29.84S
ELBOW LAKE     FAIR      79  67  67 S16G23    29.78S
WADENA         SUNNY     77  64  65 S14       29.81S
GLENWOOD       MOSUNNY   79  66  65 S15       29.84S
APPLETON       SUNNY     81  64  57 S12G23    29.79S
BENSON         SUNNY     81  64  57 S17       29.81F
ORTONVILLE     SUNNY     81  66  61 S13G20    29.78R
MADISON        SUNNY     79  64  61 S18       29.80S
WILLMAR        FAIR      79  68  69 S12G18    29.87S
$$
MNZ033>034-036-042>043-049>051-058-059-231800-
   Central Minnesota

CITY           SKY/WX    TMP DP  RH WIND       PRES   REMARKS
ST CLOUD       SUNNY     77  66  68 S16       29.88S
SAUK CENTRE    FAIR      78  66  67 SE16G22   29.85S
PAYNESVILLE    MOSUNNY   77  65  67 SE13G18   29.87S
AITKIN         MOSUNNY   79  63  57 S14       29.85S
PINE RIVER     SUNNY     79  66  65 S12G17    29.87S
BRAINERD       SUNNY     79  66  64 S10G21    29.85S
STAPLES        SUNNY     79  64  61 S13G18    29.83S
LONG PRAIRIE   FAIR      77  66  69 SE15G21   29.85S
LITTLE FALLS   SUNNY     79  63  57 S13G20    29.86S
LITCHFIELD     SUNNY     79  70  73 S6        29.89S
BUFFALO        SUNNY     78  64  62 SE9       29.91F
MAPLE LAKE     SUNNY     79  68  70 S6        29.90F
HUTCHINSON     SUNNY     78  69  75 SE8G16    29.91S
$$
MNZ037-044-045-052-053-231800-
   East Central Minnesota

CITY           SKY/WX    TMP DP  RH WIND       PRES   REMARKS
PRINCETON      SUNNY     81  66  61 SE14      29.90S
MORA           SUNNY     77  61  57 S16       29.92S
CAMBRIDGE      SUNNY     81  64  57 SE12      29.89S
RUSH CITY      SUNNY     78  65  64 S9G17     29.92S
MOOSE LAKE     SUNNY     77  63  61 S10G16    29.88F
HINCKLEY       FAIR      77  64  65 S13G18    29.92R
CLOQUET        SUNNY     75  61  60 S12G17    29.90F
MCGREGOR       SUNNY     79  64  61 S15       29.88S
$$
MNZ071>073-080-081-089-090-097-098-231800-
   Southwest Minnesota

CITY           SKY/WX    TMP DP  RH WIND       PRES   REMARKS
MONTEVIDEO     MOSUNNY   81  68  65 SW15G22   29.84S
GRANITE FALLS  MOSUNNY   78  69  73 SE13      29.86R
CANBY          SUNNY     79  65  62 S17G24    29.83R
MARSHALL       MOSUNNY   79  67  66 S21       29.85R
REDWOOD FALLS  CLOUDY    79  67  66 S16       29.87S
OLIVIA         CLOUDY    77  64  65 S14G20    29.86S
PIPESTONE      MOSUNNY   73  66  78 S13G25    29.87F
WINDOM         MOSUNNY   77  66  69 S15G23    29.91S
WORTHINGTON    CLOUDY    75  68  78 S17       29.91F
JACKSON        PTSUNNY   77  64  65 S13G23    29.94S
TRACY          CLOUDY    78  69  74 S13G18    29.87S
SLAYTON        CLOUDY    75  68  78 S15       29.90S
$$
MNZ065>067-074>077-082>085-091>093-231800-
   South Central Minnesota

CITY           SKY/WX    TMP DP  RH WIND       PRES   REMARKS
MANKATO        PTSUNNY   77  66  69 S17       29.93F
NEW ULM          N/A     77  68  73 S15       29.90F
ST JAMES       MOSUNNY   72  63  73 SE12G21   29.92F
GLENCOE        SUNNY     78  69  76 S8G17     29.90F
FARIBAULT      PTSUNNY   79  66  65 SE13G20   29.96S
OWATONNA       MOSUNNY   79  66  65 SE14G21   29.96F
WASECA         PTSUNNY   77  68  73 S18G24    29.97S
ALBERT LEA     MOSUNNY   79  68  69 S14G21    29.98S
$$
MNZ078>079-086>088-094>096-231800-
   Southeast Minnesota

CITY           SKY/WX    TMP DP  RH WIND       PRES   REMARKS
ROCHESTER      PTSUNNY   77  68  73 S16G23    30.02F
RED WING       MOSUNNY   82  64  54 S8        29.95F
STANTON        MOSUNNY   79  66  65 S12G17    29.95S
DODGE CENTER   CLOUDY    77  66  69 S15       30.00F
WINONA         PTSUNNY   79  64  61 S7        30.03F
AUSTIN         MOSUNNY   77  66  69 S14       30.00F
PRESTON        CLOUDY    75  65  71 S14G20    30.05F
$$
ABBREVIATIONS USED IN REMARKS
   TC - TEMPERATURES IN CELSIUS
  WCI - WIND CHILL INDEX
   HX - HEAT INDEX
  VSB - VISIBILITY
$$




USA.gov is the U.S. government's official web portal to all federal, state and local government web resources and services.